Погода в Джалинде

Поиск расширенной информации на нашем сайте:

Полезная информация:

Новости сайта



02.01.2020
Опубликован Долгосрочный прогноз погоды по городам России и ближнего зарубежья на январь 2020 года.
Карты: Прогноз на январь и февраль 2020 года, Сравнение прогнозируемой аномалии приземной температуры воздуха на январь 2020 года по разным моделям.




Погода в Джалинде - сегодня

Время (UTC), дата Ветер
(°,м/с) 
Видим.   Явления Облачность Т
(°С)
Тd
(°С)
f(%) Тe
(°С)
Pmin
(гПа)
dP
(гПа)
Po
(мм)
O2
(г/м3)
Тmin Tmax R s Состояние
почвы
00 30.11.20 340 (С) 20000 м    3/0 верхняя 
[Cc]
-18.8 -21.6 78 -21  1029.9  0.8  745  324  -23.6      18  равномерный
сухой снег
100% 
03 30.11.20 330 (СЗ) 20000 м    1/0 верхняя 
[Ci]
-10.7 -18.3 54 -14  1029.3  0.5  746  314           
06 30.11.20 320 (СЗ) 20000 м    1/0 верхняя 
[Cc]
-8 -19.5 39 -12  1028.9  746  311           
09 30.11.20 350 (С) 20000 м    ясно 
-14.5 -20.5 60 -18  1030.8  747  319           
12 30.11.20 350 (С) 20000 м    ясно 
-19.5 -22.9 74 -20  1032.3  0.7  747  326    -7.8       
15 30.11.20 320 (СЗ) 20000 м    ясно 
-23.2 -25.3 83 -24  1033.1  0.3  747  331           
18 30.11.20 300 (СЗ) 20000 м    ясно 
-24.8 -27 82 -25  1033.1  -0.2  747  333           
21 30.11.20 360 (С) 20000 м    ясно 
-25.8 -28.5 78 -29  1032.7  -0.6  747  334           
00 01.12.20 320 (СЗ) 20000 м    ясно 
-28.1 -30.8 78 -29  1033  747  337  -28.3      18  равномерный
сухой снег
100% 
03 01.12.20 330 (СЗ) 20000 м    ясно 
-18 -22.4 68 -21  1031  -0.6  746  324           
06 01.12.20 320 (СЗ) 20000 м    ясно 
-14.2 -20.4 59 -18  1029.3  -1  746  318           
09 01.12.20 010 (С) 20000 м    ясно 
-21.4 -23.9 80 -22  1030  -0.3  745  328           
12 01.12.20 310 (СЗ) 50000 м    4/0 верхняя 
[Cs]
-23.6 -25.8 82 -24  1030.4  745  330    -14       
15 01.12.20 360 (С) 20000 м    ясно 
-25.2 -27.8 79 -26  1030.4  -0.3  745  333           
18 01.12.20 350 (С) 20000 м    ясно 
-27.4 -30.3 76 -31  1030.9  0.1  745  336           
21 01.12.20 320 (СЗ) 20000 м    3/0 верхняя 
[Ci]
-28.7 -31.7 75 -32  1030.2  -0.8  745  337           
00 02.12.20 350 (С) 50000 м    ясно 
-29.8 -33 74 -33  1029.7  -0.7  744  338  -29.8      18  равномерный
сухой снег
100% 
03 02.12.20 310 (СЗ) 20000 м    8/0 верхняя 
[Ci]
-23.4 -27 72 -26  1027.5  -1.2  743  329           
06 02.12.20 360 (С) 20000 м    10/0 средняя 
[As op]
-16.2 -21.3 65 -19  1024.7  -1.6  742  319           
09 02.12.20 330 (СЗ) 20000 м  {снег}  9/0 средняя 
[Ac As]
-18.4 -21.2 79 -19  1025.3  0.3  742  322           
12 02.12.20 300 (СЗ) 20000 м  {снег}  4/0 средняя 
[Ac trans]
-22 -24.1 83 -22  1025.9  742  327    -15.8  0.9     
15 02.12.20 350 (С) 20000 м    3/0 средняя 
[Ac trans]
-23.7 -26.3 79 -27  1025.5  -0.6  742  329           
18 02.12.20 320 (СЗ) 20000 м    ясно 
-25 -27.7 78 -26  1024  -1.6  741  330           
21 02.12.20 310 (СЗ) 20000 м    ясно 
-23.5 -26.4 77 -27  1022.6  -1.2  740  328           
00 03.12.20 320 (СЗ) 2000 м  снег  10/0 средняя 
[As op]
-20.7 -23.4 79 -24  1022.6  0.5  740  324  -25.6    0.2  18  равномерный
сухой снег
100% 
Время (UTC), дата Ветер
(°,м/с) 
Видим.   Явления Облачность Т
(°С)
Тd
(°С)
f(%) Тe
(°С)
Pmin
(гПа)
dP
(гПа)
Po
(мм)
O2
(г/м3)
Тmin Tmax R s Состояние
почвы

Для получения пояснительной информации подведите курсор к названию столбца.

ПОГОДА в Джалинде - архив

Всё, что Вы хотите узнать о погоде в Джалинде - удобно и подробно!

Выберите нужную дату (начиная с 1 января 2019* года) и нажмите кнопку "Найти".
Будут отображены архивные сводки погоды по пункту Джалинда, начиная с указанной даты.


Отображать данные в формате CSV (для использования в таблицах Excel)


Внимание! Наш архив погоды предназначен исключительно для личного некоммерческого использования в познавательных целях. Если Вам необходимы официальные справки о состоянии погоды (для производственных, юридических, коммерческих и т.п. целей), обращайтесь в органы Росгидромета.

*Примечание: данная дата относится к архиву по метеостанциям СССР (Россия, СНГ, Балтия).
Архив по метеостанциям Зарубежной Европы и Азии (кроме Китая) хранится 10 дней, по другим регионам земного шара (Китай, Африка, Америка, Австралия, Океания) - 1 день.

Джалинда - район местоположения метеостанции


Название, широта, долгота, высота метеостанции:
Джалинда 53.5°ш. 123.9°д. 266 м над ур. моря [Российская Федерация]

Дополнительная информация

В oтличие oт бoльшинства пoгoдных сайтoв мы публикуем пoдрoбную метеoинфoрмацию в детальнoм прoфессиoнальнoм фoрмате.

Характеристики температуры и влажнoсти вoздуха измеряются на высoте 2 м в тени вдали oт зданий и деревьев.
Скoрoсть ветра измеряется на высoте 10 м (на урoвне рoста челoвека скoрoсть ветра ниже в 1.5-2 раза). Если метеoстанция нахoдится в гoрoде или в лесу, тo скoрoсть ветра занижена на 2-4 м/с пo сравнению с oткрытым местoм. Скoрoсть ветра над акватoриями крупных рек и oзёр, а также на вершинах хoлмoв на 2-5 м/с выше, чем в oбычных услoвиях.
Атмoсфернoе давление в разных тoчках местнoсти мoжет значительнo oтличаться oт давления на метеoстанции, в зависимoсти oт услoвий рельефа (при пoдъёме на 10 м давление пoнижается примернo на 1 мм рт.ст.).